Location: Ermatingen
(47.6706°N, 9.0857°E)
Time: 02:53:24
(UTC+00:00)

Cosmos 1048 Rocket - Pass Details

Date: 18 September 2020
Orbit: 742 x 792 km, 74.0° (Epoch: 24 October)

Event Time Altitude Azimuth Distance (km) Brightness Sun altitude
Rises 19:24:00 0° 336° (NNW) 3,257 8.0 -19.5°
Reaches altitude 10° 19:26:23 10° 336° (NNW) 2,333 7.2 -19.9°
Maximum altitude 19:31:42 84° 249° (WSW) 793 4.0 -20.7°
Enters shadow 19:34:11 33° 164° (SSE) 1,297 4.8 -21.1°
